Social login voor leden:
METAR EBOS 231550Z 02007KT 9999 FEW032 16/11 Q1022 NOSIG
TAF EBOS 231110Z 2312/2418 10006KT 9999 FEW025 PROB30 TEMPO 2403/2406 4000 BR

Iedereen is welkom in het clubhuis op onze opendeurdagen op zondag 27 augustus 2017
en zondag 24 september 2017, telkens tussen 14 en 18 uur!

 

NZVC is de eerste Belgische vliegclub met een erkenning als 'Approved Training Organisation (ATO)'

Sinds 3 maart 2015 is de Noordzee Vliegclub Oostende erkend door de Europese Unie en de Belgian Civil Aviation Authority als Approved Training Organisation (ATO). Hierbij zijn we de eerste vliegclub in België die voldoet aan de nieuwste en strengste Europese normen inzake organisatie, kwaliteit en veiligheid bij de opleiding tot Privaat Piloot (PPL).

 

Opleiding Piloot
Meevliegen
Visit Us
Agenda
Opleiding Piloot
Doopvluchten
Visit Us
Volgende activiteit
Noordzee Vliegclub - Nieuwpoortsesteenweg 947 8400 Oostende - Tel 059 30 04 79 - Dit e-mailadres wordt beveiligd tegen spambots. JavaScript dient ingeschakeld te zijn om het te bekijken.

 - Copyright 2017 ©